Location: Newark
(35.6799°N, 139.7636°E)
Time: 18:46:48
(UTC+00:00)

Tiros 1 despin weight - All Passes

Search period start: 15 December 2019 00:00
Search period end: 25 December 2019 00:00
Orbit: 594 x 642 km, 48.2° (Epoch: 14 December)

Date Brightness Start Highest point End Pass type
(mag) Time Alt. Az. Time Alt. Az. Time Alt. Az.
15 Dec - 01:36:15 10° W 01:39:12 17° SW 01:42:07 10° S daylight
15 Dec - 15:41:01 10° S 15:44:08 18° SE 15:47:12 10° E night (unlit)
15 Dec - 17:20:41 10° WSW 17:25:17 75° NW 17:29:51 10° NE night (unlit)
15 Dec - 19:03:48 10° WNW 19:07:24 22° NNW 19:10:58 10° NE visible
15 Dec - 20:47:19 10° NW 20:50:12 16° N 20:53:05 10° NE visible
15 Dec - 22:28:52 10° NW 22:32:51 30° NNE 22:36:46 10° E daylight
16 Dec - 00:10:14 10° WNW 00:14:36 57° SW 00:18:54 10° SE daylight
16 Dec - 15:56:11 10° SSW 16:00:26 37° SE 16:04:39 10° ENE night (unlit)
16 Dec - 17:37:35 10° W 17:41:58 42° NNW 17:46:17 10° NE night (unlit)
16 Dec - 19:21:17 10° NW 19:24:25 18° N 19:27:31 10° NE visible
16 Dec - 21:04:04 10° NW 21:07:17 19° NNE 21:10:28 10° ENE visible
16 Dec - 22:45:16 10° NW 22:49:37 50° NNE 22:53:55 10° ESE daylight
17 Dec - 00:27:14 10° WNW 00:30:58 27° SW 00:34:41 10° SSE daylight
17 Dec - 14:34:29 10° SE 14:35:54 11° SE 14:37:19 10° ESE night (unlit)
17 Dec - 16:12:15 10° SW 16:16:52 75° SE 16:21:27 10° ENE night (unlit)
17 Dec - 17:54:51 10° W 17:58:47 27° NNW 18:02:41 10° NE visible
17 Dec - 19:38:36 10° NW 19:41:30 16° N 19:44:22 10° NE visible
17 Dec - 21:20:33 10° NW 21:24:16 25° NNE 21:27:56 10° ENE daylight
17 Dec - 23:01:46 10° NW 23:06:14 87° SW 23:10:39 10° SE daylight
18 Dec - 00:45:20 10° WSW 00:47:13 12° SW 00:49:04 10° SSW daylight
18 Dec - 14:48:24 10° S 14:52:09 24° SE 14:55:52 10° E night (unlit)
18 Dec - 16:28:54 10° WSW 16:33:27 58° NNW 16:37:59 10° NE night (unlit)
18 Dec - 18:12:18 10° WNW 18:15:44 20° NNW 18:19:08 10° NE visible
18 Dec - 19:55:33 10° NW 19:58:35 17° N 20:01:36 10° NE visible
18 Dec - 21:36:56 10° NW 21:41:07 37° NNE 21:45:15 10° E daylight
18 Dec - 23:18:30 10° WNW 23:22:42 41° SW 23:26:51 10° SSE daylight
19 Dec - 15:04:01 10° SSW 15:08:30 50° SE 15:12:58 10° ENE night (unlit)
19 Dec - 16:45:58 10° W 16:50:11 34° NNW 16:54:23 10° NE night (unlit)
19 Dec - 18:29:45 10° NW 18:32:47 17° N 18:35:47 10° NE visible
19 Dec - 20:12:10 10° NW 20:15:38 21° NNE 20:19:03 10° ENE visible
19 Dec - 21:53:22 10° NW 21:57:50 65° NE 22:02:14 10° ESE daylight
19 Dec - 23:35:47 10° W 23:39:01 20° SW 23:42:13 10° S daylight
20 Dec - 13:41:04 10° SSE 13:43:53 16° SE 13:46:43 10° E night (unlit)
20 Dec - 15:20:21 10° SW 15:25:00 83° NW 15:29:38 10° NE night (unlit)
20 Dec - 17:03:20 10° WNW 17:07:04 24° NNW 17:10:47 10° NE night (unlit)
20 Dec - 18:46:56 10° NW 18:49:52 17° N 18:52:47 10° NE visible
20 Dec - 20:28:36 10° NW 20:32:34 29° NNE 20:36:27 10° E visible
20 Dec - 22:09:56 10° WNW 22:14:23 64° SW 22:18:45 10° SE daylight
21 Dec - 13:56:00 10° SSW 14:00:10 33° SE 14:04:20 10° ENE night (unlit)
21 Dec - 15:37:10 10° WSW 15:41:39 46° NNW 15:46:05 10° NE night (unlit)
21 Dec - 17:20:48 10° NW 17:24:04 19° N 17:27:19 10° NE night (unlit)
21 Dec - 19:03:44 10° NW 19:06:57 19° N 19:10:08 10° NE visible
21 Dec - 20:45:01 10° NW 20:49:22 46° NNE 20:53:39 10° ESE visible
21 Dec - 22:26:51 10° WNW 22:30:47 30° SW 22:34:39 10° SSE daylight
22 Dec - 14:11:57 10° SW 14:16:36 68° SE 14:21:12 10° ENE night (unlit)
22 Dec - 15:54:23 10° W 15:58:27 29° NNW 16:02:29 10° NE night (unlit)
22 Dec - 17:38:10 10° NW 17:41:09 17° N 17:44:07 10° NE night (unlit)
22 Dec - 19:20:16 10° NW 19:23:57 24° NNE 19:27:36 10° ENE visible
22 Dec - 21:01:29 10° NW 21:06:01 85° NE 21:10:27 10° SE visible
22 Dec - 22:44:37 10° W 22:47:02 14° SW 22:49:26 10° SSW daylight
23 Dec - 12:48:18 10° S 12:51:54 22° SE 12:55:28 10° E night (unlit)
23 Dec - 14:28:31 10° WSW 14:33:09 64° NNW 14:37:46 10° NE night (unlit)
23 Dec - 16:11:49 10° WNW 16:15:23 21° NNW 16:18:55 10° NE night (unlit)
23 Dec - 17:55:11 10° NW 17:58:15 17° N 18:01:17 10° NE visible
23 Dec - 19:36:40 10° NW 19:40:50 34° NNE 19:44:57 10° E visible
23 Dec - 21:18:10 10° WNW 21:22:30 47° SW 21:26:45 10° SSE visible
24 Dec - 13:03:47 10° SSW 13:08:14 45° SE 13:12:40 10° ENE night (unlit)
24 Dec - 14:45:32 10° W 14:49:52 37° NNW 14:54:11 10° NE night (unlit)
24 Dec - 16:29:17 10° NW 16:32:26 18° N 16:35:33 10° NE night (unlit)
24 Dec - 18:11:51 10° NW 18:15:18 20° NNE 18:18:42 10° ENE visible
24 Dec - 19:53:04 10° NW 19:57:35 59° NNE 20:01:59 10° ESE visible
24 Dec - 21:35:19 10° W 21:38:49 22° SW 21:42:17 10° S daylight
